Rustam Fayzullaev

Scout - Metallurg
14 Okt 2027
Donnerstag
Verarbeitung

Persönlichkeit

Anpassungsfähigkeit (11) Ehrgeiz (12) Kontroverse (4) Loyalität (5) Druck (3) Professionalität (5) Fairness (8) Temperament (7)

Profil

Trainerstil Demokratisch
Lizenz Kontinentale B
Entschlossenheit 4
Menschenführung 5
Motivation 7
Disziplin 7
Arbeitszufriedenheit
82%
Ermüdung
0%
Rolle Scout
Gehalt 10.9K p/W
Vertrag 14.03.2030

Leistung

Verhalten Gut
Trainingseffektivität
31%
Spielerentwicklung
35%
Verletzungsprävention
25%
Taktische Umsetzung
20%

Letzte Ereignisse

Nahm an einer Scouting-Besprechung teil jetzt
Spieler begutachtet 7T her
Nahm an einer Scouting-Besprechung teil 7T her
Nahm an einer Scouting-Besprechung teil 7T her
Spieler begutachtet 7T her
Spieler begutachtet 7T her
Spieler begutachtet 14T her
Spieler begutachtet 14T her

Aktuell beobachtet

87
Spieler Verein Status Fähigkeit Vertrauen Beobachtet Zuletzt beobachtet Letzte Stimme
Lucas Carrizo Plaza Colonia Aktiv 119 / 97 40% 4 13.10.2027 -
Genaro Rossi San Martín SJ Aktiv 98 / 102 40% 1 13.10.2027 -
Marco Miori Alvarado Aktiv 105 / 118 40% 2 10.10.2027 -
Roman Paparyga Qizilqum Aktiv 108 / 84 40% 2 10.10.2027 -
Christian Theoharous Central Coast Mariners Aktiv 130 / 105 40% 3 05.10.2027 -
Matija Krivokapić Bunyodkor Aktiv 89 / 113 40% 2 05.10.2027 -
Eugenio Olivera Talleres Aktiv 91 / 113 40% 3 04.10.2027 -
Doniyor Hasanov Obod Aktiv 82 / 88 40% 1 04.10.2027 -
Luka Ratković Qizilqum Aktiv 88 / 87 40% 4 02.10.2027 -
Sebastián Cocimano Nueva Chicago Aktiv 121 / 125 40% 1 02.10.2027 -
Kianz Froese Semen Padang Aktiv 97 / 93 40% 2 28.09.2027 -
Alan Bonansea Colón Aktiv 101 / 126 40% 1 28.09.2027 -
Matías Sosa Arsenal Aktiv 115 / 125 40% 3 27.09.2027 -
Luca Franco Arsenal Aktiv 107 / 122 40% 2 27.09.2027 -
Gustavo Viera Cerro Largo Aktiv 102 / 93 40% 2 24.09.2027 -
Angel Uñates Güemes Aktiv 84 / 96 40% 1 24.09.2027 -
Dejan Tumbas Persis Aktiv 99 / 96 40% 1 19.09.2027 -
Lisandro Cabrera Maipú Aktiv 108 / 115 40% 2 18.09.2027 -
Abel Argañaraz Gimnasia y Esgrima Aktiv 105 / 101 40% 2 18.09.2027 -
Ersūltan Töreqūl Taraz Aktiv 93 / 93 40% 3 17.09.2027 -
Nicolás Heiz Maipú Aktiv 111 / 99 40% 1 17.09.2027 -
Imeda Ashortia Andijon Aktiv 104 / 118 40% 3 13.09.2027 -
Matías Samaniego Talleres Aktiv 89 / 110 40% 2 13.09.2027 -
Sudi Abdallah Persijap Aktiv 88 / 87 40% 1 12.09.2027 -
Nermin Haljeta PSIM Aktiv 116 / 106 40% 2 07.09.2027 -
Sebastián Parada San Luis Aktiv 95 / 87 40% 2 01.09.2027 -
Asadbek Jo'raboyev Bukhara Aktiv 82 / 105 40% 1 01.09.2027 -
Renzo Reynaga Patronato Aktiv 112 / 111 40% 1 28.08.2027 -
Owen Falconis Cerrito Aktiv 118 / 94 40% 1 27.08.2027 -
Paschal Durugbor Atyrau Aktiv 85 / 97 40% 1 26.08.2027 -
Lucas Ríos Atlanta Aktiv 131 / 132 40% 1 26.08.2027 -
Hiiro Komori Ventforet Kofu Aktiv 113 / 119 40% 1 24.08.2027 -
Ljupce Doriev Hapoel Tel Aviv Aktiv 109 / 126 40% 2 17.08.2027 -
Inti López River Plate Aktiv 95 / 93 40% 1 17.08.2027 -
Alessandro Galeandro Campobasso Aktiv 89 / 112 40% 1 14.08.2027 -
Lucas Pedraza Defensores Unidos Aktiv 105 / 88 40% 1 13.08.2027 -
Juan Rocca Gimnasia y Tiro Aktiv 105 / 92 40% 1 13.08.2027 -
Jasur Yaxshiboyev Lokomotiv Aktiv 101 / 120 40% 1 09.08.2027 -
Juan Mendoza Güemes Aktiv 101 / 101 40% 1 06.08.2027 -
Javier Martínez Almirante Brown Aktiv 105 / 111 40% 1 06.08.2027 -
Esteban da Silva Racing Aktiv 127 / 120 40% 3 05.08.2027 -
Cristian Rivas Bogota Aktiv 91 / 116 40% 2 05.08.2027 -
Lucio Castillo Colegiales Aktiv 116 / 127 40% 7 04.08.2027 Beobachten
Ramazan Bağdat Kairat Aktiv 94 / 102 40% 2 03.08.2027 -
Jere Vrcić Birkirkara Aktiv 103 / 108 40% 1 03.08.2027 -
Santiago Apa All Boys Aktiv 126 / 101 40% 1 02.08.2027 -
Manuel López Defensores Unidos Aktiv 100 / 82 40% 1 28.06.2027 -
Dalberto Arema Aktiv 109 / 123 40% 1 26.06.2027 -
Diego Campos Bali United Aktiv 115 / 99 40% 1 25.06.2027 -
Ged Garner Newport County Aktiv 95 / 101 40% 1 24.06.2027 -
José Álvarez Albion Aktiv 114 / 109 40% 2 23.06.2027 -
Jonah James Mosta Aktiv 93 / 96 40% 3 22.06.2027 -
Destiny Efosa Egharevba Picerno Aktiv 117 / 125 40% 2 16.06.2027 -
Martin Boakye Andijon Aktiv 111 / 94 40% 2 14.06.2027 -
Martín Garnerone Estudiantes Aktiv 102 / 102 40% 3 31.05.2027 -
Oleksiy Shchebetun Qizilqum Aktiv 100 / 102 40% 2 31.05.2027 -
Fernando Rodríguez Venialgo Suva Aktiv 81 / 94 40% 1 29.05.2027 -
Maksim Galkin Shakhter Aktiv 82 / 88 40% 1 28.05.2027 -
Amadou Diallo Oliveirense Aktiv 98 / 97 40% 4 27.05.2027 -
Gustavo Rodriguez Valledupar Aktiv 106 / 90 40% 2 26.05.2027 -
Dias Qalybaev Shakhter Aktiv 94 / 103 40% 3 25.05.2027 -
Eduardo Esterilla Deportes Quindio Aktiv 85 / 74 40% 1 23.05.2027 -
Vlatko Stojanovski Mashal Aktiv 103 / 96 40% 1 16.05.2027 -
Marcos Machado Mitre Aktiv 99 / 114 40% 1 15.05.2027 -
Sergio Carrasco Cobresal Aktiv 101 / 95 40% 1 11.05.2027 -
Juan David Rueda Alianza Petrolera Aktiv 111 / 99 40% 1 11.05.2027 -
Muhriddin Zoirov Lokomotiv Aktiv 90 / 90 40% 1 08.05.2027 -
Daniiar Üsenov Tobol Aktiv 103 / 107 40% 1 05.05.2027 -
Amine Talal Astana Aktiv 94 / 101 40% 2 02.05.2027 -
Alexis Domínguez Chacarita Juniors Abgelehnt 115 / 100 40% 2 28.04.2027 Mehr Infos nötig
Uroš Milovanović Tobol Aktiv 112 / 111 40% 2 28.04.2027 -
Azat Beysebekov Akzhaiyk Aktiv 87 / 98 40% 2 27.04.2027 -
Nico Valentine Colchester United Aktiv 72 / 72 40% 3 25.04.2027 -
Enzo Cabrera Danubio Aktiv 95 / 95 40% 1 20.04.2027 -
Ifeagwu Ojukwu Atyrau Aktiv 89 / 83 40% 1 18.04.2027 -
Giacomo Sali AlbinoLeffe Aktiv 108 / 98 40% 2 17.04.2027 -
Oralkhan Ömirtaev Okzhetpes Aktiv 96 / 101 40% 2 25.03.2027 -
Kevin Isa Luna Central Norte Aktiv 117 / 126 40% 1 21.03.2027 -
Dylan Salvo Defensores Unidos Aktiv 106 / 109 40% 1 20.03.2027 -
Nicolás Molina Temperley Aktiv 111 / 124 40% 1 19.03.2027 -
Yuval Ranon Vitesse Aktiv 106 / 90 40% 1 18.03.2027 -
Ruslanbek Jiyanov Navbahor Aktiv 109 / 120 40% 1 30.12.2026 -
Stipe Perica Neftchi Aktiv 113 / 109 40% 1 22.12.2026 -
Abylaikhan Zhūmabek Atyrau Aktiv 107 / 113 40% 1 15.12.2026 -
Bobur Abdiholiqov Nasaf Abgelehnt 123 / 118 40% 1 08.12.2026 Mehr Infos nötig
Franco Díaz Temperley Aktiv 115 / 123 40% 1 02.08.2026 -
Alexis Zapata Santa Fe Aktiv 106 / 98 40% 1 02.08.2026 -